Probability
0 0 0 0 0 0 0 0 0 0 0 0 0 0 0 0 0 0 0 0 0 0 0 0 0 0 0 0 0 0 0 0 0 0 0 0 0 0 0 0 0 0 0 0
0 0 0 0 0 0 0 0 0 0 0 0 0 0 0 0 0 0 0 0 0 0 0 0 0 0 0 0 0 0 0 0 0 0 0 0 0 0 0 0 0 0 0 0
0 0 0 0 0 0 0 0 0 0 0 0 0 0 0 0 0 0 0 0 0 0 0 0 0 0 0 0 0 0 0 0 0 0 0 0 0 0 0 0 0 0 0 0
0 0 0 0 0 0 0 0 0 0 0 0 0 0 0 0 0 0 0 0 0 0 0 0 0 0 0 0 0 0 0 0 0 0 0 0 0 0 0 0 0 0 0 0
0 0 0 0 0 0 0 0 0 0 0 0 0 0 0 0 0 0 0 0 0 0 0 0 0 0 0 0 0 0 0 0 0 0 0 0 0 0 0 0 0 0 0 0
0 0 0 0 0 0 0 0 0 0 0 0 0 0 0 0 0 0 0 0 0 0 0 0 0 0 0 0 0 0 0 0 0 0 0 0 0 0 0 0 0 0 0 0
0 0 0 0 0 0 0 0 0 0 0 0 0 0 0 0 0 0 0 0 0 0 0 0 0 0 0 0 0 0 0 0 0 0 0 0 0 0 0 0 0 0 0 0
0 0 0 0 0 0 0 0 0 0 0 0 0 0 0 0 0 0 0 0 0 0 0 0 0 0 0 0 0 0 0 0 0 0 0 0 0 0 0 0 0 0 0 0
0 0 0 0 0 0 0 0 0 0 0 0 0 0 0 0 0 0 0 0 0 0 0 0 0 0 0 0 0 0 0 0 0 0 0 0 0 0 0 0 0 0 0 0
0 0 0 0 0 0 0 0 0 0 0 0 0 0 0 0 0 0 0 0 0 0 0 0 0 0 0 0 0 0 0 0 0 0 0 0 0 0 0 0 0 0 0 0
0 0 0 0 0 0 0 0 0 0 0 0 0 0 0 0 0 0 0 0 0 0 0 0 0 0 0 0 0 0 0 0 0 0 0 0 0 0 0 0 0 0 0 0
0 0 0 0 0 0 0 0 0 0 0 0 0 0 0 0 0 0 0 0 0 0 0 0 0 0 0 0 0 0 0 0 0 0 0 0 0 0 0 0 0 0 0 0
0 0 0 0 0 0 0 0 0 0 0 0 0 0 0 0 0 0 0 0 0 0 0 0 0 0 0 0 0 0 0 0 0 0 0 0 0 0 0 0 0 0 0 0
0 0 0 0 0 0 0 0 0 0 0 0 0 0 0 0 0 0 0 0 0 0 0 0 0 0 0 0 0 0 0 0 0 0 0 0 0 0 0 0 0 0 0 0
0 0 0 0 0 0 0 0 0 0 0 0 0 0 0 0 0 0 0 0 0 0 0 0 0 0 0 0 0 0 0 0 0 0 0 0 0 0 0 0 0 0 0 0
0 0 0 0 0 0 0 0 0 0 0 0 0 0 0 0 0 0 0 0 0 0 0 0 0 0 0 0 0 0 0 0 0 0 0 0 0 0 0 0 0 0 0 0
0 0 0 0 0 0 0 0 0 0 0 0 0 0 0 0 0 0 0 0 0 0 0 0 0 0 0 0 0 0 0 0 0 0 0 0 0 0 0 0 0 0 0 0
0 0 0 0 0 0 0 0 0 0 0 0 0 0 0 0 0 0 0 0 0 0 0 0 0 0 0 0 0 0 0 0 0 0 0 0 0 0 0 0 0 0 0 0
0 0 0 0 0 0 0 0 0 0 0 0 0 0 0 0 0 0 0 0 0 0 0 0 0 0 0 0 0 0 0 0 0 0 0 0 0 0 0 0 0 0 0 0
0 0 0 0 0 0 0 0 0 0 0 0 0 0 0 0 0 0 0 0 0 0 0 0 0 0 0 0 0 0 0 0 0 0 0 0 0 0 0 0 0 0 0 0
0 0 0 0 0 0 0 0 0 0 0 0 0 0 0 0 0 0 0 0 0 0 0 0 0 0 0 0 0 0 0 0 0 0 0 0 0 0 0 0 0 0 0 0
0 0 0 0 0 0 0 0 0 0 0 0 0 0 0 0 0 0 0 0 0 0 0 0 0 0 0 0 0 0 0 0 0 0 0 0 0 0 0 0 0 0 0 0
0 0 0 0 0 0 0 0 0 0 0 0 0 0 0 0 0 0 0 0 0 0 0 0 0 0 0 0 0 0 0 0 0 0 0 0 0 0 0 0 0 0 0 0
0 0 0 0 0 0 0 0 0 0 0 0 0 0 0 0 0 0 0 0 0 0 0 0 0 0 0 0 0 0 0 0 0 0 0 0 0 0 0 0 0 0 0 0
0 0 0 0 0 0 0 0 0 0 0 0 0 0 0 0 0 0 0 0 0 0 0 0 0 0 0 0 0 0 0 0 0 0 0 0 0 0 0 0 0 0 0 0
0 0 0 0 0 0 0 0 0 0 0 0 0 0 0 0 0 0 0 0 0 0 0 0 0 0 0 0 0 0 0 0 0 0 0 0 0 0 0 0 0 0 0 0
0 0 0 0 0 0 0 0 0 0 0 0 0 0 0 0 0 0 0 0 0 0 0 0 0 0 0 0 0 0 0 0 0 0 0 0 0 0 0 0 0 0 0 0
Wind_Speed
3 3 4 2 3 1 2 3 4 5 7 6 2 2 2 1 3 4 5 6 7 7 7 6 4 3 4 6 4 3 4 5 5 5 4 4 4 4 4 3 3 4 3 3
1 5 5 4 4 3 3 3 2 2 2 2 2 1 1 3 4 4 5 6 6 7 8 8 5 3 2 4 3 4 6 6 5 6 6 5 5 4 4 3 3 4 5 5
2 4 3 1 1 1 3 2 2 3 3 2 2 2 1 3 5 5 3 3 5 6 7 7 5 2 1 2 3 4 6 6 5 6 7 6 6 7 7 6 5 4 5 6
1 0 3 3 3 4 2 2 3 3 5 6 3 1 1 0 1 4 5 4 5 7 7 4 2 1 1 1 3 3 4 5 6 6 6 7 5 7 6 6 7 5 4 4
1 0 4 2 4 5 4 4 6 4 3 3 2 2 3 2 4 3 3 4 5 7 6 3 1 1 1 2 3 4 5 5 5 4 4 3 4 6 4 6 8 9 6 5
3 1 3 2 3 4 3 3 4 5 5 5 4 0 3 3 2 2 3 3 4 6 6 3 4 2 1 4 5 5 5 4 5 4 3 2 1 2 2 5 6 7 8 7
2 2 4 2 1 6 3 4 4 5 5 6 5 4 3 2 2 3 2 3 3 4 4 5 1 1 2 5 5 4 5 5 4 4 3 3 2 4 4 3 4 3 6 5
2 1 3 4 4 5 5 3 4 4 4 4 3 2 3 4 3 4 3 2 2 3 4 4 4 3 5 5 4 4 4 4 4 3 5 7 5 2 4 4 5 4 3 1
6 6 5 4 4 4 5 5 5 5 5 6 5 3 3 3 3 2 1 1 2 2 3 3 3 3 6 5 4 4 3 2 4 6 7 7 6 4 6 4 1 2 4 5
2 4 4 4 3 4 5 5 6 6 7 7 5 4 3 2 1 1 0 1 2 2 3 3 2 3 4 4 3 0 2 2 3 5 4 3 4 4 3 2 3 3 1 2
3 3 2 5 6 6 5 4 5 5 6 8 7 5 4 4 3 2 1 1 2 1 1 1 1 2 3 2 1 1 2 2 1 1 2 3 3 3 2 2 4 3 2 1
8 10 9 8 10 9 9 7 8 7 5 6 7 7 6 5 4 3 3 2 1 1 1 2 3 2 2 3 3 3 4 4 1 0 1 2 2 1 2 3 2 2 2 1
6 6 7 3 6 9 9 9 8 9 9 8 7 7 7 5 5 5 4 4 5 4 4 3 3 5 5 4 3 4 4 4 1 1 1 1 2 3 4 5 4 7 7 6
5 5 3 5 7 9 8 8 9 8 8 7 7 7 6 5 5 6 7 7 5 5 5 4 4 5 5 3 3 3 1 0 2 2 2 2 3 2 2 3 3 4 5 6
9 10 7 7 7 8 7 6 6 6 7 6 6 8 8 8 8 9 8 5 4 4 5 5 5 6 4 2 1 3 3 4 4 4 4 4 4 4 4 4 3 2 4 5
9 7 4 6 10 10 8 8 9 10 8 8 8 10 11 11 9 8 6 6 6 7 8 7 7 6 6 4 4 3 4 6 5 3 4 4 3 3 3 3 3 3 4 5
9 8 7 7 9 10 12 14 15 14 13 11 12 12 9 8 6 7 7 7 8 7 5 6 7 6 6 6 5 4 4 5 5 3 2 2 2 1 1 2 3 4 6 6
17 20 20 16 13 12 12 12 12 11 11 14 12 8 8 9 11 11 10 7 5 5 6 7 6 6 7 7 6 5 5 5 4 3 2 2 1 1 1 2 3 5 5 3
15 13 13 13 12 12 12 12 12 12 11 8 9 10 12 13 12 10 8 7 7 7 9 8 9 9 9 11 11 7 6 6 5 4 4 4 3 3 2 3 4 4 2 1
13 12 13 13 10 10 10 11 11 10 9 10 10 9 8 10 9 8 9 11 11 11 10 8 7 7 8 11 13 9 8 8 7 5 5 4 3 3 2 3 4 4 3 3
12 12 12 12 11 10 11 10 10 11 11 11 12 13 13 12 10 9 8 8 11 10 8 7 7 7 7 10 11 9 8 8 7 6 5 4 4 4 4 4 5 5 4 4
8 9 10 10 9 9 9 9 11 12 10 11 12 11 10 9 8 9 10 9 10 8 8 7 8 11 10 11 8 8 8 7 6 5 5 5 5 5 5 6 6 6 5 5
3 5 6 8 10 11 9 9 12 12 12 13 13 12 11 11 10 9 10 11 9 8 7 8 11 13 13 10 8 7 7 7 6 6 6 5 5 5 6 7 6 5 5 6
5 4 4 3 3 3 6 9 11 12 13 13 13 13 12 9 7 9 8 8 11 12 10 9 11 12 11 6 6 6 6 6 6 6 6 5 5 5 5 5 4 4 5 6
4 3 0 2 4 7 9 9 8 10 10 9 10 10 10 10 10 10 9 8 10 10 8 9 11 13 10 8 8 8 8 7 6 6 5 5 5 5 4 5 4 4 4 5
2 3 3 2 4 4 3 4 6 9 9 8 8 8 7 7 8 6 6 8 8 8 6 6 8 9 8 8 8 6 5 5 5 5 5 5 5 5 5 4 4 4 4 4
5 4 2 2 2 1 2 3 5 6 8 9 9 10 9 8 8 8 8 7 6 7 6 7 8 9 7 6 5 4 4 4 4 5 5 5 5 5 5 5 4 3 3 3
Wind_Direction
222 189 136 71 38 143 186 173 200 212 188 186 168 123 165 127 62 46 17 7 358 345 335 327 331 338 340 341 351 44 73 71 51 53 61 66 75 63 54 66 59 69 61 47
68 97 107 101 75 72 40 48 343 129 85 56 67 317 26 39 45 39 19 358 348 339 335 326 316 307 321 348 24 58 72 71 60 48 45 53 78 66 41 48 43 40 40 38
211 151 112 291 245 181 134 117 238 186 152 173 217 261 3 20 11 342 322 323 321 314 319 317 312 301 24 32 72 78 73 67 59 51 39 44 61 63 39 20 18 24 29 21
170 296 250 209 199 241 281 229 216 185 189 185 211 228 312 218 288 304 304 304 309 302 300 296 301 268 212 131 116 99 80 64 52 54 52 39 49 60 40 28 21 5 5 13
108 205 298 247 198 168 176 243 210 191 160 138 111 32 310 231 213 240 273 288 298 313 310 301 341 171 157 85 73 89 90 79 65 45 64 80 74 63 34 40 23 359 346 1
127 188 258 255 186 156 112 289 184 157 158 142 124 113 270 247 230 266 286 296 319 339 350 49 73 50 97 100 92 79 67 68 67 40 358 316 47 93 60 69 40 358 350 353
134 241 268 244 128 117 153 244 168 159 163 158 175 202 231 256 260 291 296 297 325 352 12 27 35 99 93 99 101 90 60 35 44 45 19 347 263 174 174 130 93 25 316 334
149 252 264 187 154 180 207 176 155 153 168 176 198 210 224 235 250 273 278 325 4 19 26 27 16 55 82 70 58 56 52 29 3 29 45 17 8 123 144 165 171 192 206 109
193 214 227 209 198 177 154 154 173 171 178 179 188 206 186 196 229 279 311 20 53 79 63 46 38 87 95 78 41 14 17 7 345 355 29 12 354 31 68 50 352 206 195 159
236 236 224 224 178 172 173 176 183 182 176 171 181 194 165 159 196 275 70 128 131 116 99 79 55 89 131 133 118 281 302 345 337 327 345 7 342 338 25 35 278 272 319 70
236 256 244 240 205 189 186 179 160 161 174 168 177 185 178 194 205 207 181 148 133 118 132 173 82 100 131 135 156 257 280 279 262 272 329 360 320 261 237 244 248 245 245 74
213 203 181 211 201 175 173 190 182 169 165 183 186 180 187 196 194 188 186 163 168 198 259 276 276 255 214 202 215 263 290 301 307 162 179 213 242 266 259 271 272 187 180 124
204 187 186 186 184 174 177 194 192 184 187 187 191 181 184 188 197 197 200 195 199 203 213 226 256 275 275 261 245 260 290 309 329 346 339 355 28 9 325 327 18 50 69 61
184 135 162 189 191 183 184 191 188 187 197 194 186 181 180 190 188 200 215 217 207 207 216 217 220 247 261 257 248 252 276 254 111 103 71 57 57 54 51 37 25 3 7 17
199 195 194 177 173 183 177 160 166 187 199 206 191 192 188 192 201 211 217 211 206 224 234 223 224 239 240 242 203 156 135 106 93 91 90 93 85 76 69 62 47 4 330 325
193 189 183 168 181 184 171 171 187 207 207 210 200 205 204 201 206 212 204 192 197 224 229 208 214 215 192 177 158 162 150 132 127 118 109 101 92 82 64 44 15 342 315 300
150 186 200 203 190 186 192 194 198 204 205 205 211 209 198 197 201 217 217 205 209 227 227 207 210 189 177 170 171 181 165 150 150 150 134 113 98 77 39 356 325 307 292 277
194 199 191 188 190 192 199 202 205 207 203 209 207 188 182 189 208 218 217 199 203 235 237 227 213 178 178 176 174 176 181 173 171 181 184 186 195 201 227 256 270 297 316 316
207 198 187 191 187 186 194 198 202 207 209 192 180 191 197 205 213 215 190 176 193 222 242 229 211 187 192 192 182 180 189 192 190 197 207 210 210 217 240 281 308 319 316 253
205 198 190 195 186 181 191 201 203 205 199 183 190 193 201 215 211 194 178 194 202 212 220 212 204 199 199 195 191 189 194 196 199 207 216 219 225 239 273 297 294 280 252 240
198 190 190 191 191 194 198 195 185 200 200 189 191 200 208 213 199 184 179 212 233 220 211 198 201 209 198 192 190 191 193 196 200 209 216 224 228 231 242 257 253 242 237 239
189 187 194 193 191 201 204 191 193 201 189 191 201 204 203 204 190 190 200 217 231 205 201 206 212 212 196 183 184 188 192 198 202 205 213 215 218 226 237 244 240 233 238 250
210 204 202 199 202 212 203 193 197 198 196 200 201 199 200 203 193 189 213 224 220 205 196 208 212 206 183 176 182 183 186 199 209 215 216 211 220 231 242 243 235 236 247 250
312 260 233 205 189 197 208 210 203 203 205 205 203 202 199 196 205 210 213 202 199 201 203 208 204 188 171 182 174 171 190 208 212 217 216 214 223 235 240 237 240 245 263 268
339 323 49 153 212 223 232 231 212 209 206 204 208 205 199 198 207 208 200 208 203 194 203 196 174 163 169 174 180 189 196 199 202 205 211 216 226 229 221 214 217 234 255 257
1 344 334 303 248 245 240 223 222 221 207 205 210 205 198 196 199 189 191 203 195 188 180 162 167 173 180 181 191 186 173 177 186 203 212 215 217 217 207 201 222 231 237 249
204 209 235 273 275 258 236 221 224 230 217 212 214 204 197 194 192 194 193 188 181 181 175 163 161 171 182 165 148 154 160 182 203 210 211 212 214 213 204 208 220 222 229 246